TimeEST,TemperatureF,Dew PointF,Humidity,Sea Level PressureIn,VisibilityMPH,Wind Direction,Wind SpeedMPH,Gust SpeedMPH,PrecipitationIn,Events,Conditions,WindDirDegrees,DateUTC
12:15 AM,51.8,51.8,100,30.23,5.0,Calm,Calm,-,N/A,,Mostly Cloudy,0,2013-01-20 05:15:00
12:35 AM,51.8,51.8,100,30.23,7.0,Calm,Calm,-,N/A,,Mostly Cloudy,0,2013-01-20 05:35:00
12:55 AM,53.6,51.8,94,30.24,10.0,Calm,Calm,-,N/A,,Scattered Clouds,0,2013-01-20 05:55:00
1:15 AM,53.6,51.8,94,30.23,10.0,Calm,Calm,-,N/A,,Scattered Clouds,0,2013-01-20 06:15:00
1:35 AM,53.6,51.8,94,30.22,7.0,Calm,Calm,-,N/A,,Clear,0,2013-01-20 06:35:00
1:55 AM,53.6,51.8,94,30.22,10.0,Calm,Calm,-,N/A,,Clear,0,2013-01-20 06:55:00
2:15 AM,51.8,51.8,100,30.22,10.0,NNW,3.5,-,N/A,,Scattered Clouds,330,2013-01-20 07:15:00
2:35 AM,53.6,51.8,94,30.22,10.0,Calm,Calm,-,N/A,,Overcast,0,2013-01-20 07:35:00
2:55 AM,53.6,51.8,94,30.22,10.0,Calm,Calm,-,N/A,,Overcast,0,2013-01-20 07:55:00
3:15 AM,53.6,51.8,94,30.22,10.0,Calm,Calm,-,N/A,,Overcast,0,2013-01-20 08:15:00
3:35 AM,53.6,51.8,94,30.22,10.0,Calm,Calm,-,N/A,,Overcast,0,2013-01-20 08:35:00
3:55 AM,53.6,51.8,94,30.22,10.0,Calm,Calm,-,N/A,,Overcast,0,2013-01-20 08:55:00
4:15 AM,53.6,51.8,94,30.21,10.0,Calm,Calm,-,N/A,,Overcast,0,2013-01-20 09:15:00
4:35 AM,53.6,51.8,94,30.21,10.0,Calm,Calm,-,N/A,,Overcast,0,2013-01-20 09:35:00
4:55 AM,53.6,51.8,94,30.21,10.0,Calm,Calm,-,N/A,,Overcast,0,2013-01-20 09:55:00
5:15 AM,53.6,51.8,94,30.21,10.0,Calm,Calm,-,N/A,,Overcast,0,2013-01-20 10:15:00
5:35 AM,53.6,51.8,94,30.21,10.0,Calm,Calm,-,N/A,,Overcast,0,2013-01-20 10:35:00
5:55 AM,53.6,51.8,94,30.21,10.0,Calm,Calm,-,N/A,,Overcast,0,2013-01-20 10:55:00
6:15 AM,53.6,51.8,94,30.21,10.0,Calm,Calm,-,N/A,,Overcast,0,2013-01-20 11:15:00
6:35 AM,53.6,51.8,94,30.21,10.0,Calm,Calm,-,N/A,,Overcast,0,2013-01-20 11:35:00
6:55 AM,53.6,51.8,94,30.21,10.0,NNW,4.6,-,N/A,,Scattered Clouds,340,2013-01-20 11:55:00
7:15 AM,53.6,51.8,94,30.21,10.0,Calm,Calm,-,N/A,,Clear,0,2013-01-20 12:15:00
7:35 AM,51.8,50.0,94,30.22,10.0,Calm,Calm,-,N/A,,Clear,0,2013-01-20 12:35:00
7:55 AM,50.0,46.4,87,30.23,7.0,SW,3.5,-,N/A,,Clear,230,2013-01-20 12:55:00
8:15 AM,53.6,51.8,94,30.22,10.0,Calm,Calm,-,N/A,,Clear,0,2013-01-20 13:15:00
8:35 AM,55.4,53.6,94,30.22,10.0,Calm,Calm,-,N/A,,Clear,0,2013-01-20 13:35:00
8:55 AM,55.4,53.6,94,30.22,10.0,Calm,Calm,-,N/A,,Clear,0,2013-01-20 13:55:00
9:15 AM,59.0,53.6,82,30.23,10.0,Calm,Calm,-,N/A,,Clear,0,2013-01-20 14:15:00
9:35 AM,60.8,53.6,77,30.23,10.0,Calm,Calm,-,N/A,,Clear,0,2013-01-20 14:35:00
9:55 AM,62.6,53.6,72,30.24,10.0,Calm,Calm,-,N/A,,Clear,0,2013-01-20 14:55:00
10:15 AM,64.4,51.8,64,30.23,10.0,WSW,3.5,-,N/A,,Clear,240,2013-01-20 15:15:00
10:35 AM,68.0,53.6,60,30.23,10.0,SW,4.6,-,N/A,,Clear,220,2013-01-20 15:35:00
10:55 AM,68.0,51.8,56,30.21,10.0,SSW,3.5,-,N/A,,Clear,210,2013-01-20 15:55:00
11:15 AM,71.6,51.8,50,30.20,10.0,WNW,5.8,-,N/A,,Clear,300,2013-01-20 16:15:00
11:35 AM,71.6,50.0,46,30.19,10.0,WNW,10.4,-,N/A,,Clear,290,2013-01-20 16:35:00
11:55 AM,71.6,50.0,46,30.18,10.0,WNW,8.1,-,N/A,,Clear,300,2013-01-20 16:55:00
12:15 PM,71.6,50.0,46,30.16,10.0,NNW,9.2,-,N/A,,Clear,340,2013-01-20 17:15:00
12:35 PM,73.4,50.0,44,30.15,10.0,West,6.9,-,N/A,,Clear,270,2013-01-20 17:35:00
12:55 PM,73.4,50.0,44,30.14,10.0,NW,11.5,-,N/A,,Scattered Clouds,320,2013-01-20 17:55:00
1:15 PM,73.4,50.0,44,30.13,10.0,West,10.4,17.3,N/A,,Scattered Clouds,280,2013-01-20 18:15:00
1:35 PM,71.6,50.0,46,30.12,10.0,West,4.6,-,N/A,,Clear,270,2013-01-20 18:35:00
1:55 PM,73.4,48.2,41,30.11,10.0,West,12.7,19.6,N/A,,Clear,280,2013-01-20 18:55:00
2:15 PM,73.4,50.0,44,30.11,10.0,WNW,10.4,-,N/A,,Clear,300,2013-01-20 19:15:00
2:35 PM,73.4,48.2,41,30.11,10.0,West,11.5,-,N/A,,Clear,270,2013-01-20 19:35:00
2:55 PM,73.4,48.2,41,30.10,10.0,West,9.2,-,N/A,,Clear,280,2013-01-20 19:55:00
3:15 PM,73.4,46.4,38,30.10,10.0,West,9.2,-,N/A,,Clear,270,2013-01-20 20:15:00
3:35 PM,71.6,48.2,43,30.10,10.0,WNW,6.9,-,N/A,,Clear,290,2013-01-20 20:35:00
3:55 PM,71.6,46.4,41,30.09,10.0,NNW,6.9,-,N/A,,Clear,330,2013-01-20 20:55:00
4:15 PM,71.6,48.2,43,30.10,10.0,NW,4.6,-,N/A,,Clear,320,2013-01-20 21:15:00
4:35 PM,71.6,48.2,43,30.10,10.0,West,6.9,-,N/A,,Clear,280,2013-01-20 21:35:00
4:55 PM,71.6,48.2,43,30.11,10.0,West,5.8,-,N/A,,Clear,270,2013-01-20 21:55:00
5:15 PM,69.8,48.2,46,30.11,10.0,West,5.8,-,N/A,,Clear,270,2013-01-20 22:15:00
5:35 PM,68.0,50.0,52,30.11,10.0,Calm,Calm,-,N/A,,Clear,0,2013-01-20 22:35:00
5:55 PM,62.6,51.8,68,30.11,10.0,Calm,Calm,-,N/A,,Clear,0,2013-01-20 22:55:00
6:15 PM,60.8,51.8,72,30.11,10.0,Calm,Calm,-,N/A,,Clear,0,2013-01-20 23:15:00
6:35 PM,59.0,50.0,72,30.12,10.0,Calm,Calm,-,N/A,,Clear,0,2013-01-20 23:35:00
6:55 PM,57.2,51.8,82,30.12,10.0,Calm,Calm,-,N/A,,Clear,0,2013-01-20 23:55:00
7:15 PM,55.4,50.0,82,30.12,10.0,Calm,Calm,-,N/A,,Clear,0,2013-01-21 00:15:00
7:35 PM,55.4,51.8,88,30.12,10.0,Calm,Calm,-,N/A,,Clear,0,2013-01-21 00:35:00
7:55 PM,53.6,50.0,88,30.12,10.0,Calm,Calm,-,N/A,,Clear,0,2013-01-21 00:55:00
8:15 PM,53.6,50.0,88,30.13,10.0,Calm,Calm,-,N/A,,Clear,0,2013-01-21 01:15:00
8:35 PM,53.6,50.0,88,30.13,10.0,Calm,Calm,-,N/A,,Clear,0,2013-01-21 01:35:00
8:55 PM,51.8,51.8,100,30.13,10.0,Calm,Calm,-,N/A,,Clear,0,2013-01-21 01:55:00
9:15 PM,51.8,50.0,94,30.13,10.0,Calm,Calm,-,N/A,,Clear,0,2013-01-21 02:15:00
9:35 PM,51.8,50.0,94,30.14,7.0,Calm,Calm,-,N/A,,Clear,0,2013-01-21 02:35:00
9:55 PM,50.0,50.0,100,30.14,10.0,Calm,Calm,-,N/A,,Clear,0,2013-01-21 02:55:00
10:15 PM,51.8,50.0,94,30.14,7.0,Calm,Calm,-,N/A,,Clear,0,2013-01-21 03:15:00
10:35 PM,50.0,48.2,94,30.14,0.8,Calm,Calm,-,N/A,,Unknown,0,2013-01-21 03:35:00
10:55 PM,50.0,48.2,94,30.14,7.0,Calm,Calm,-,N/A,,Clear,0,2013-01-21 03:55:00
11:15 PM,50.0,48.2,94,30.13,3.0,Calm,Calm,-,N/A,,Clear,0,2013-01-21 04:15:00
11:35 PM,50.0,48.2,94,30.13,0.5,Calm,Calm,-,N/A,,Unknown,0,2013-01-21 04:35:00
11:55 PM,48.2,46.4,93,30.13,1.0,Calm,Calm,-,N/A,,Unknown,0,2013-01-21 04:55:00